TimeCDT,TemperatureF,Dew PointF,Humidity,Sea Level PressureIn,VisibilityMPH,Wind Direction,Wind SpeedMPH,Gust SpeedMPH,PrecipitationIn,Events,Conditions,WindDirDegrees,DateUTC
12:53 AM,34.0,28.9,82,30.16,10.0,NW,18.4,31.1,N/A,,Mostly Cloudy,310,2012-10-05 05:53:00
1:19 AM,33.8,28.4,81,30.13,10.0,NW,19.6,28.8,N/A,,Mostly Cloudy,310,2012-10-05 06:19:00
1:53 AM,34.0,28.9,82,30.16,10.0,NW,18.4,28.8,N/A,,Overcast,310,2012-10-05 06:53:00
2:53 AM,33.8,28.4,81,30.12,10.0,NW,20.7,26.5,N/A,,Overcast,310,2012-10-05 07:53:00
3:53 AM,34.0,28.0,79,30.15,9.0,NW,21.9,29.9,N/A,,Overcast,310,2012-10-05 08:53:00
4:10 AM,33.8,28.4,81,30.12,10.0,NW,19.6,28.8,0.00,Snow,Light Snow,310,2012-10-05 09:10:00
4:53 AM,34.0,28.0,79,30.15,9.0,NW,18.4,28.8,0.00,Snow,Light Snow,310,2012-10-05 09:53:00
5:53 AM,34.0,28.0,79,30.14,9.0,NW,21.9,29.9,0.00,Snow,Light Snow,310,2012-10-05 10:53:00
6:53 AM,33.1,28.0,82,30.14,9.0,NW,24.2,28.8,0.00,,Overcast,310,2012-10-05 11:53:00
7:53 AM,34.0,28.0,79,30.15,10.0,NW,20.7,27.6,N/A,,Overcast,310,2012-10-05 12:53:00
8:53 AM,34.0,28.9,82,30.16,9.0,NW,23.0,27.6,N/A,,Overcast,310,2012-10-05 13:53:00
9:53 AM,35.6,30.2,81,30.14,3.0,NW,18.4,29.9,N/A,Snow,Light Snow,310,2012-10-05 14:53:00
10:53 AM,36.0,30.9,82,30.19,10.0,NW,24.2,31.1,0.00,,Overcast,320,2012-10-05 15:53:00
11:43 AM,35.6,32.0,87,30.16,2.0,NW,25.3,-,0.00,Snow,Light Snow,320,2012-10-05 16:43:00
11:53 AM,36.0,32.0,86,30.20,2.5,NW,23.0,28.8,0.00,Snow,Light Snow,320,2012-10-05 16:53:00
12:20 PM,35.6,32.0,87,30.17,9.0,NNW,25.3,33.4,0.00,Snow,Light Snow,330,2012-10-05 17:20:00
12:50 PM,35.6,33.8,93,30.18,2.0,NNW,24.2,33.4,0.00,Snow,Light Snow,330,2012-10-05 17:50:00
12:53 PM,36.0,33.1,89,30.21,4.0,NNW,21.9,33.4,0.00,Snow,Light Snow,330,2012-10-05 17:53:00
1:05 PM,35.6,32.0,87,30.18,2.0,NNW,23.0,33.4,0.00,Snow,Light Snow,330,2012-10-05 18:05:00
1:53 PM,36.0,33.1,89,30.22,2.0,NW,21.9,27.6,0.01,Snow,Light Snow,320,2012-10-05 18:53:00
2:50 PM,35.6,33.8,93,30.18,4.0,NNW,19.6,28.8,0.01,Snow,Light Snow,330,2012-10-05 19:50:00
2:53 PM,36.0,33.1,89,30.22,5.0,NNW,23.0,-,0.01,Snow,Light Snow,330,2012-10-05 19:53:00
3:53 PM,37.9,34.0,86,30.22,9.0,NW,21.9,29.9,0.00,Snow,Light Snow,320,2012-10-05 20:53:00
4:50 PM,35.6,33.8,93,30.20,4.0,NNW,19.6,26.5,0.01,Snow,Light Snow,330,2012-10-05 21:50:00
4:53 PM,35.1,33.1,92,30.23,4.0,NNW,17.3,26.5,0.01,Snow,Light Snow,340,2012-10-05 21:53:00
5:53 PM,35.1,33.1,92,30.25,9.0,NNW,15.0,25.3,0.01,Snow,Light Snow,330,2012-10-05 22:53:00
6:53 PM,35.1,33.1,92,30.27,9.0,NNW,18.4,26.5,0.01,Snow,Light Snow,340,2012-10-05 23:53:00
7:36 PM,33.8,32.0,93,30.24,6.0,NNW,15.0,-,0.00,Snow,Light Snow,340,2012-10-06 00:36:00
7:53 PM,34.0,32.0,92,30.29,8.0,North,15.0,-,0.01,Snow,Light Snow,350,2012-10-06 00:53:00
8:53 PM,34.0,32.0,92,30.30,10.0,NNW,15.0,-,0.00,,Overcast,340,2012-10-06 01:53:00
9:24 PM,33.8,32.0,93,30.26,10.0,North,13.8,-,N/A,,Overcast,350,2012-10-06 02:24:00
9:53 PM,34.0,32.0,92,30.30,10.0,North,13.8,-,N/A,,Overcast,350,2012-10-06 02:53:00
10:39 PM,33.8,30.2,87,30.27,10.0,NNW,12.7,-,N/A,,Overcast,340,2012-10-06 03:39:00
10:53 PM,34.0,30.9,89,30.31,10.0,North,12.7,-,N/A,,Overcast,350,2012-10-06 03:53:00
11:53 PM,33.1,30.0,89,30.32,10.0,North,13.8,-,N/A,,Scattered Clouds,350,2012-10-06 04:53:00